Back to catalog

EUTE 2-F4

AliveCommunicationsGEO
NORAD 22028·PAYLOAD·🇪🇺 EU

Launched Jul 9, 1992 from Guiana Space Centre

Loading…

TLE

FreshSource: Space-Track

Epoch: Sep 14, 2026, 20:58 UTC

1 22028U 92041B   26257.87390052  .00000042  00000-0  00000-0 0  9992
2 22028  14.7804   4.7434 0008370 265.1420 107.9517  0.99074907 47646

Track EUTE 2-F4 in real time with AllMySat

Download on the App Store